Location: Unspecified
(47.8330°N, 0.0000°E)
Time: 14:43:46
(UTC+00:00)

O/OREOS (USA 219) - Visible Passes

Search period start: 21 July 2019 00:00
Search period end: 31 July 2019 00:00
Orbit: 621 x 646 km, 72.0° (Epoch: 22 May)

Date Brightness Start Highest point End Pass type
(mag) Time Alt. Az. Time Alt. Az. Time Alt. Az.
21 Jul ? 03:26:39 10° SSE 03:30:24 26° ESE 03:34:10 10° NE visible
23 Jul ? 02:33:10 10° SE 02:35:29 14° E 02:37:48 10° ENE visible
24 Jul ? 02:53:17 10° SSE 02:57:11 28° ESE 03:01:04 10° NE visible
25 Jul ? 03:14:33 10° S 03:19:03 58° ESE 03:23:32 10° NNE visible
26 Jul ? 01:59:35 10° SE 02:02:14 15° E 02:04:53 10° ENE visible
26 Jul ? 03:36:32 10° SW 03:41:05 68° WNW 03:45:38 10° NNE visible
27 Jul ? 02:20:51 15° SSE 02:23:57 31° ESE 02:27:57 10° NE visible
28 Jul ? 02:42:46 20° S 02:45:50 65° ESE 02:50:21 10° NNE visible
29 Jul ? 01:27:11 14° SE 01:29:00 17° E 01:31:54 10° ENE visible
29 Jul ? 03:04:39 18° SW 03:07:54 62° WNW 03:12:26 10° NNE visible
30 Jul ? 01:49:02 26° SSE 01:50:44 34° ESE 01:54:51 10° NE visible
30 Jul ? 03:26:29 12° WSW 03:30:09 32° NW 03:34:14 10° N visible
